Regional Weather Roundup
Issued by NWS

Home | Current Version | Previous Version | Graphics & Text | Print | Product List | Glossary On
Versions: 1 2 3 4 5 6 7 8 9 10 11 12 13 14 15 16 17 18 19 20 21 22 23 24 25 26 27
000
ASUS45 KCYS 270710
RWRWY

WYOMING REGIONAL WEATHER ROUNDUP
NATIONAL WEATHER SERVICE CHEYENNE WY
100 AM MDT FRI MAY 27 2016

NOTE:  "FAIR" INDICATES FEW OR NO CLOUDS BELOW 12,000 FEET
WITH NO SIGNIFICANT WEATHER AND/OR OBSTRUCTIONS TO VISIBILITY.

WYZ001-270800-
YELLOWSTONE NATIONAL PARK

CITY           SKY/WX    TMP DP  RH WIND       PRES   REMARKS
LK YELLOWSTONE   N/A     31  29  92 CALM      30.09S
W YELLOWSTONE  NOT AVBL

$$
WYZ002>013-054>058-071-098>099-270800-
NORTHERN WYOMING

CITY           SKY/WX    TMP DP  RH WIND       PRES   REMARKS
JACKSON        MOCLDY    45  37  76 N5        30.02R
CODY           FAIR      45  37  76 CALM      29.94F
GREYBULL       FAIR      48  45  89 SE6       29.92S
WORLAND        FAIR      47  43  86 S6        29.93S
SHERIDAN       MOCLDY    48  43  82 VRB3      29.92S
BUFFALO        FAIR      46  40  79 W5        29.95S
GILLETTE       CLOUDY    43  41  93 SW5       29.92F
HULETT         CLOUDY    46  43  87 S5        29.92F
NEWCASTLE      FAIR      46  34  61 N12       29.91F

$$
WYZ014>020-022>026-101>103-270800-
CENTRAL WYOMING

CITY           SKY/WX    TMP DP  RH WIND       PRES   REMARKS
BIG PINEY      FAIR      38  33  82 NW10      30.01F WCI  31
PINEDALE       FAIR      36  34  93 CALM      30.01S
DUBOIS         FAIR      37  30  75 W7        30.01F WCI  32
LANDER         FAIR      47  36  65 SW5       29.98S
RIVERTON       CLOUDY    50  39  66 W5        29.98F
CASPER         MOCLDY    39  36  89 CALM      29.95S
DOUGLAS          N/A    N/A N/A N/A MISG      29.94F

$$
WYZ021-027>030-104>119-270800-
SOUTHERN WYOMING

CITY           SKY/WX    TMP DP  RH WIND       PRES   REMARKS
EVANSTON       FAIR      39  33  79 SW8       30.04F WCI  33
KEMMERER         N/A     41  32  70 N7        30.04S
FORT BRIDGER   CLOUDY    45  37  76 W9        30.06S
ROCK SPRINGS   RAIN      45  42  89 E5        30.03R
DIXON          FAIR      42  39  88 CALM      30.02R
RAWLINS        FAIR      42  36  79 N10       30.00R
SARATOGA       FAIR      36  32  87 W7        29.99R WCI  30
LARAMIE        FAIR      38  35  89 NW5       29.97R WCI  34
CHEYENNE       CLOUDY    48  37  65 NW13      29.90S
TORRINGTON     FAIR      50  41  71 N10       29.84S
PINE BLUFFS    CLOUDY    46  43  87 NW9       29.87R

$$




USA.gov is the U.S. government's official web portal to all federal, state and local government web resources and services.